Date String (YYYY-MM-DD hh:mm:ss) UTC,Instrument flags,absolute air pressure of the measurement (hPa),sample flow rate (lpm),inlet stack bypass flow (lpm),air temperature of the measurement (°C),ambient temperature measured by the external sensor (°C),aerosol sample conditioner tube jacket temperature (°C),OPC LED temperature (°C),internal box temperature (°C),relative humidity of the measurement (%),span deviation,mass concentration of particles derived from Lorenz-Mie calculation of OPC scattering (μg/m³),mass concentration of particles derived from Lorenz-Mie calculation of OPC scattering (μg/m³),mass concentration of particles derived from Lorenz-Mie calculation of OPC scattering (μg/m³)
DateTimeUTC,F1_M11,P_M11,Q1_M11,Q2_M11,T1_M11,T2_M11,T3_M11,T4_M11,T5_M11,U1_M11,ZSPAN_M11,X2_M11,X0_M11,X1_M11
2023-12-18 06:00:00,SystemResetWarning,0836.4,5.01,000.00,023.1,022.0,000.0,031.6,024.4,9.2,0000.0,0001.60,0005.71,0001.20
2023-12-18 06:01:00,SystemResetWarning,0836.4,5.01,000.00,023.1,022.0,000.0,031.6,024.4,9.2,0000.0,0001.59,0005.18,0001.19
2023-12-18 06:02:00,SystemResetWarning,0836.4,4.99,000.00,023.1,022.0,000.0,031.6,024.4,9.2,0000.0,0001.61,0005.26,0001.18
2023-12-18 06:03:00,SystemResetWarning,0836.4,4.99,000.00,023.1,022.0,000.0,031.6,024.3,9.2,0000.0,0001.59,0005.19,0001.18
2023-12-18 06:04:00,SystemResetWarning,0836.4,5.00,000.00,023.1,022.0,000.0,031.5,024.3,9.3,0000.0,0001.59,0005.01,0001.19
2023-12-18 06:05:00,SystemResetWarning,0836.3,5.00,000.00,023.1,021.9,000.0,031.5,024.3,9.2,0000.0,0001.56,0003.85,0001.18
2023-12-18 06:06:00,SystemResetWarning,0836.4,5.00,000.00,023.0,021.9,000.0,031.5,024.3,9.3,0000.0,0001.58,0004.08,0001.19
2023-12-18 06:07:00,SystemResetWarning,0836.4,5.01,000.00,023.0,021.9,000.0,031.5,024.3,9.3,0000.0,0001.60,0003.65,0001.19
2023-12-18 06:08:00,SystemResetWarning,0836.3,5.00,000.00,023.0,021.9,000.0,031.5,024.3,9.3,0000.0,0001.57,0003.17,0001.18
2023-12-18 06:09:00,SystemResetWarning,0836.3,4.99,000.00,023.0,021.9,000.0,031.5,024.3,9.2,0000.0,0001.58,0003.24,0001.19
2023-12-18 06:10:00,SystemResetWarning,0836.3,5.00,000.00,023.0,021.9,000.0,031.5,024.3,9.3,0000.0,0001.59,0003.27,0001.19
2023-12-18 06:11:00,SystemResetWarning,0836.4,5.01,000.00,023.0,021.9,000.0,031.5,024.3,9.2,0000.0,0001.59,0003.42,0001.20
2023-12-18 06:12:00,SystemResetWarning,0836.4,5.00,000.00,023.0,021.8,000.0,031.4,024.4,9.2,0000.0,0001.59,0004.17,0001.21
2023-12-18 06:13:00,SystemResetWarning,0836.3,4.98,000.00,023.0,021.8,000.0,031.4,024.3,9.3,0000.0,0001.62,0004.37,0001.22
2023-12-18 06:14:00,SystemResetWarning,0836.3,5.01,000.00,023.0,021.8,000.0,031.4,024.3,9.3,0000.0,0001.66,0004.41,0001.24
2023-12-18 06:15:00,SystemResetWarning,0836.3,5.02,000.00,023.0,021.8,000.0,031.4,024.2,9.3,0000.0,0001.66,0004.44,0001.24
2023-12-18 06:16:00,SystemResetWarning,0836.3,4.99,000.00,023.0,021.8,000.0,031.4,024.3,9.4,0000.0,0001.66,0004.98,0001.24
2023-12-18 06:17:00,SystemResetWarning,0836.3,4.99,000.00,023.0,021.8,000.0,031.4,024.3,9.4,0000.0,0001.67,0005.64,0001.22
2023-12-18 06:18:00,SystemResetWarning,0836.2,5.00,000.00,022.9,021.8,000.0,031.4,024.2,9.4,0000.0,0001.65,0005.22,0001.21
2023-12-18 06:19:00,SystemResetWarning,0836.3,5.01,000.00,022.9,021.8,000.0,031.4,024.2,9.4,0000.0,0001.70,0005.35,0001.22
2023-12-18 06:20:00,SystemResetWarning,0836.3,5.01,000.00,022.9,021.8,000.0,031.4,024.2,9.4,0000.0,0001.75,0005.50,0001.24
2023-12-18 06:21:00,SystemResetWarning,0836.3,4.99,000.00,022.9,021.8,000.0,031.4,024.2,9.5,0000.0,0001.76,0005.63,0001.25
2023-12-18 06:22:00,SystemResetWarning,0836.3,4.99,000.00,022.9,021.7,000.0,031.3,024.2,9.5,0000.0,0001.76,0005.63,0001.25
2023-12-18 06:23:00,SystemResetWarning,0836.2,5.02,000.00,022.9,021.7,000.0,031.3,024.2,9.5,0000.0,0001.77,0005.10,0001.24
2023-12-18 06:24:00,SystemResetWarning,0836.2,5.01,000.00,022.9,021.7,000.0,031.3,024.2,9.5,0000.0,0001.79,0005.15,0001.24
2023-12-18 06:25:00,SystemResetWarning,0836.3,4.99,000.00,022.9,021.7,000.0,031.3,024.2,9.4,0000.0,0001.79,0005.25,0001.24
2023-12-18 06:26:00,SystemResetWarning,0836.2,4.99,000.00,022.9,021.7,000.0,031.3,024.2,9.4,0000.0,0001.81,0005.66,0001.23
2023-12-18 06:27:00,SystemResetWarning,0836.2,5.01,000.00,022.8,021.7,000.0,031.3,024.1,9.4,0000.0,0001.84,0005.45,0001.23
2023-12-18 06:28:00,SystemResetWarning,0836.2,5.01,000.00,022.8,021.7,000.0,031.3,024.2,9.3,0000.0,0001.82,0004.61,0001.26
2023-12-18 06:29:00,SystemResetWarning,0836.2,4.99,000.00,022.8,021.7,000.0,031.3,024.2,9.4,0000.0,0001.85,0005.41,0001.27
2023-12-18 06:30:00,SystemResetWarning,0836.2,4.99,000.00,022.8,021.7,000.0,031.2,024.2,9.5,0000.0,0001.83,0005.48,0001.27
2023-12-18 06:31:00,SystemResetWarning,0836.2,5.01,000.00,022.8,021.7,000.0,031.2,024.2,9.3,0000.0,0001.80,0005.50,0001.25
2023-12-18 06:32:00,SystemResetWarning,0836.2,5.01,000.00,022.8,021.7,000.0,031.2,024.2,9.4,0000.0,0001.77,0005.38,0001.24
2023-12-18 06:33:00,SystemResetWarning,0836.2,5.00,000.00,022.8,021.7,000.0,031.2,024.1,9.4,0000.0,0001.78,0005.20,0001.24
2023-12-18 06:34:00,SystemResetWarning,0836.1,4.99,000.00,022.8,021.7,000.0,031.2,024.2,9.4,0000.0,0001.77,0005.06,0001.25
2023-12-18 06:35:00,SystemResetWarning,0836.1,5.01,000.00,022.8,021.7,000.0,031.2,024.2,9.5,0000.0,0001.75,0004.66,0001.25
2023-12-18 06:36:00,SystemResetWarning,0836.1,5.01,000.00,022.8,021.7,000.0,031.2,024.2,9.4,0000.0,0001.71,0004.60,0001.24
2023-12-18 06:37:00,SystemResetWarning,0836.1,4.99,000.00,022.8,021.7,000.0,031.2,024.1,9.4,0000.0,0001.69,0004.14,0001.22
2023-12-18 06:38:00,SystemResetWarning,0836.1,5.00,000.00,022.8,021.7,000.0,031.2,024.2,9.3,0000.0,0001.65,0004.03,0001.22
2023-12-18 06:39:00,SystemResetWarning,0836.1,5.00,000.00,022.8,021.7,000.0,031.2,024.2,9.3,0000.0,0001.66,0003.99,0001.20
2023-12-18 06:40:00,SystemResetWarning,0836.1,5.00,000.00,022.8,021.7,000.0,031.2,024.1,9.2,0000.0,0001.66,0003.25,0001.20
2023-12-18 06:41:00,SystemResetWarning,0836.0,5.00,000.00,022.8,021.7,000.0,031.2,024.1,9.2,0000.0,0001.63,0003.00,0001.20
2023-12-18 06:42:00,SystemResetWarning,0836.0,5.00,000.00,022.8,021.7,000.0,031.2,024.1,9.3,0000.0,0001.63,0002.82,0001.21
2023-12-18 06:43:00,SystemResetWarning,0835.9,5.00,000.00,022.8,021.7,000.0,031.2,024.1,9.3,0000.0,0001.64,0002.89,0001.21
2023-12-18 06:44:00,SystemResetWarning,0835.9,4.99,000.00,022.8,021.7,000.0,031.2,024.2,9.3,0000.0,0001.60,0002.92,0001.19
2023-12-18 06:45:00,SystemResetWarning,0835.9,4.99,000.00,022.8,021.7,000.0,031.2,024.2,9.3,0000.0,0001.59,0003.12,0001.17
2023-12-18 06:46:00,SystemResetWarning,0835.9,5.01,000.00,022.8,021.7,000.0,031.1,024.1,9.3,0000.0,0001.55,0003.08,0001.15
2023-12-18 06:47:00,SystemResetWarning,0835.9,5.01,000.00,022.8,021.7,000.0,031.1,024.1,9.3,0000.0,0001.54,0003.15,0001.14
2023-12-18 06:48:00,SystemResetWarning,0835.9,5.01,000.00,022.8,021.7,000.0,031.1,024.1,9.3,0000.0,0001.53,0003.96,0001.13
2023-12-18 06:49:00,SystemResetWarning,0835.9,5.00,000.00,022.8,021.7,000.0,031.1,024.1,9.4,0000.0,0001.52,0003.96,0001.13
2023-12-18 06:50:00,SystemResetWarning,0835.9,4.99,000.00,022.8,021.7,000.0,031.1,024.1,9.4,0000.0,0001.51,0003.92,0001.13
2023-12-18 06:51:00,SystemResetWarning,0835.9,4.99,000.00,022.8,021.7,000.0,031.1,024.1,9.4,0000.0,0001.44,0003.73,0001.12
2023-12-18 06:52:00,SystemResetWarning,0835.9,5.00,000.00,022.7,021.7,000.0,031.1,024.1,9.4,0000.0,0001.44,0003.78,0001.11
2023-12-18 06:53:00,SystemResetWarning,0835.9,5.01,000.00,022.7,021.7,000.0,031.1,024.1,9.3,0000.0,0001.40,0003.73,0001.08
2023-12-18 06:54:00,SystemResetWarning,0835.9,5.01,000.00,022.7,021.7,000.0,031.1,024.1,9.3,0000.0,0001.37,0003.61,0001.07
2023-12-18 06:55:00,SystemResetWarning,0835.9,5.00,000.00,022.7,021.7,000.0,031.1,024.1,9.3,0000.0,0001.39,0003.57,0001.07
2023-12-18 06:56:00,SystemResetWarning,0835.9,5.00,000.00,022.7,021.7,000.0,031.1,024.1,9.3,0000.0,0001.41,0003.43,0001.07
2023-12-18 06:57:00,SystemResetWarning,0835.9,4.99,000.00,022.7,021.7,000.0,031.1,024.1,9.3,0000.0,0001.43,0003.48,0001.06
2023-12-18 06:58:00,SystemResetWarning,0835.9,4.99,000.00,022.7,021.7,000.0,031.1,024.0,9.3,0000.0,0001.43,0003.31,0001.07
2023-12-18 06:59:00,SystemResetWarning,0835.9,5.01,000.00,022.7,021.6,000.0,031.1,024.0,9.3,0000.0,0001.40,0002.28,0001.07
